Météo par heure à Alma

Ce jour, 15 Mai, Samedi

Heure Température Précipitation Vent Pression Humidité
00:00 +8°C° 0 mm 1 m/s 752 mmHg 54%
01:00 +7°C° 0 mm 1 m/s 752 mmHg 55%
02:00 +7°C° 0 mm 1 m/s 752 mmHg 58%
03:00 +6°C° 0 mm 1 m/s 752 mmHg 60%
04:00 +5°C° 0 mm 2 m/s 752 mmHg 63%
05:00 +7°C° 0 mm 2 m/s 752 mmHg 58%
06:00 +9°C° 0 mm 2 m/s 752 mmHg 53%
07:00 +12°C° 0 mm 2 m/s 752 mmHg 48%
08:00 +14°C° 0 mm 2 m/s 752 mmHg 46%
09:00 +17°C° 0 mm 2 m/s 752 mmHg 44%
10:00 +19°C° 0 mm 2 m/s 751 mmHg 42%
11:00 +18°C° 0.2 mm 2 m/s 751 mmHg 47%
12:00 +18°C° 0.2 mm 3 m/s 751 mmHg 51%
13:00 +18°C° 0.2 mm 4 m/s 750 mmHg 56%
14:00 +17°C° 0.5 mm 3 m/s 751 mmHg 58%
15:00 +17°C° 0.5 mm 3 m/s 751 mmHg 60%
16:00 +17°C° 0.5 mm 2 m/s 751 mmHg 62%
17:00 +15°C° 0.1 mm 2 m/s 751 mmHg 66%
18:00 +14°C° 0.1 mm 2 m/s 752 mmHg 70%
19:00 +13°C° 0.1 mm 2 m/s 752 mmHg 74%
20:00 +12°C° 0 mm 2 m/s 752 mmHg 78%
21:00 +10°C° 0 mm 2 m/s 752 mmHg 83%
22:00 +8°C° 0 mm 2 m/s 753 mmHg 87%
23:00 +8°C° 0 mm 2 m/s 753 mmHg 89%

Demain, 16 Mai, Dimanche

Heure Température Précipitation Vent Pression Humidité
00:00 +7°C° 0 mm 2 m/s 753 mmHg 92%
01:00 +6°C° 0 mm 2 m/s 753 mmHg 94%
02:00 +6°C° 0 mm 2 m/s 754 mmHg 93%
03:00 +6°C° 0 mm 2 m/s 754 mmHg 93%
04:00 +6°C° 0 mm 2 m/s 754 mmHg 92%
05:00 +7°C° 0 mm 2 m/s 754 mmHg 86%
06:00 +9°C° 0 mm 2 m/s 755 mmHg 81%
07:00 +10°C° 0 mm 2 m/s 755 mmHg 75%
08:00 +13°C° 0 mm 2 m/s 755 mmHg 68%
09:00 +15°C° 0 mm 2 m/s 755 mmHg 61%
10:00 +18°C° 0 mm 1 m/s 755 mmHg 55%
11:00 +19°C° 0 mm 1 m/s 755 mmHg 50%
12:00 +20°C° 0 mm 1 m/s 754 mmHg 45%
13:00 +22°C° 0 mm 1 m/s 754 mmHg 40%
14:00 +21°C° 0 mm 1 m/s 754 mmHg 40%
15:00 +20°C° 0 mm 2 m/s 754 mmHg 41%
16:00 +19°C° 0 mm 2 m/s 754 mmHg 41%
17:00 +19°C° 0 mm 1 m/s 754 mmHg 48%
18:00 +16°C° 0 mm 1 m/s 754 mmHg 56%
19:00 +13°C° 0 mm 0 m/s 754 mmHg 63%
20:00 +13°C° 0.3 mm 1 m/s 754 mmHg 71%
21:00 +12°C° 0.3 mm 1 m/s 754 mmHg 79%
22:00 +10°C° 0.3 mm 1 m/s 754 mmHg 86%
23:00 +9°C° 0.2 mm 2 m/s 755 mmHg 88%

Après-demain, 17 Mai, Lundi

Heure Température Précipitation Vent Pression Humidité
00:00 +8°C° 0.2 mm 2 m/s 755 mmHg 90%
01:00 +8°C° 0.2 mm 2 m/s 755 mmHg 93%
02:00 +8°C° 0 mm 2 m/s 755 mmHg 93%
03:00 +7°C° 0 mm 2 m/s 755 mmHg 94%
04:00 +7°C° 0 mm 2 m/s 755 mmHg 95%
05:00 +9°C° 0 mm 2 m/s 755 mmHg 89%
06:00 +12°C° 0 mm 2 m/s 755 mmHg 84%
07:00 +13°C° 0 mm 2 m/s 755 mmHg 79%
08:00 +15°C° 0 mm 2 m/s 755 mmHg 71%
09:00 +17°C° 0 mm 2 m/s 754 mmHg 63%
10:00 +19°C° 0 mm 2 m/s 754 mmHg 55%
11:00 +20°C° 0.1 mm 2 m/s 753 mmHg 50%
12:00 +23°C° 0.1 mm 2 m/s 753 mmHg 45%
13:00 +24°C° 0.1 mm 3 m/s 752 mmHg 40%
14:00 +22°C° 0 mm 3 m/s 752 mmHg 42%
15:00 +22°C° 0 mm 4 m/s 751 mmHg 44%
16:00 +21°C° 0 mm 5 m/s 751 mmHg 46%
17:00 +19°C° 0.2 mm 5 m/s 751 mmHg 54%
18:00 +17°C° 0.2 mm 5 m/s 751 mmHg 62%
19:00 +15°C° 0.2 mm 5 m/s 751 mmHg 71%
20:00 +14°C° 0.3 mm 4 m/s 751 mmHg 76%
21:00 +13°C° 0.3 mm 4 m/s 751 mmHg 81%
22:00 +12°C° 0.3 mm 3 m/s 751 mmHg 85%
23:00 +13°C° 1.6 mm 2 m/s 751 mmHg 88%

18 Mai, Mardi

Heure Température Précipitation Vent Pression Humidité
00:00 +12°C° 1.6 mm 2 m/s 751 mmHg 92%
01:00 +12°C° 1.6 mm 2 m/s 751 mmHg 95%
02:00 +10°C° 0.1 mm 3 m/s 751 mmHg 92%
03:00 +8°C° 0.1 mm 5 m/s 752 mmHg 89%
04:00 +7°C° 0.1 mm 6 m/s 752 mmHg 87%
05:00 +7°C° 0 mm 6 m/s 753 mmHg 82%
06:00 +5°C° 0 mm 6 m/s 753 mmHg 77%
07:00 +5°C° 0 mm 5 m/s 754 mmHg 72%
08:00 +7°C° 0 mm 5 m/s 754 mmHg 63%
09:00 +8°C° 0 mm 5 m/s 754 mmHg 54%
10:00 +9°C° 0 mm 5 m/s 754 mmHg 45%
11:00 +10°C° 0 mm 5 m/s 754 mmHg 41%
12:00 +12°C° 0 mm 5 m/s 754 mmHg 37%
13:00 +13°C° 0 mm 4 m/s 754 mmHg 32%
14:00 +13°C° 0 mm 4 m/s 753 mmHg 32%
15:00 +14°C° 0 mm 4 m/s 753 mmHg 33%
16:00 +14°C° 0 mm 4 m/s 753 mmHg 33%
17:00 +13°C° 0 mm 4 m/s 754 mmHg 36%
18:00 +12°C° 0 mm 3 m/s 754 mmHg 39%
19:00 +11°C° 0 mm 3 m/s 754 mmHg 41%
20:00 +10°C° 0 mm 2 m/s 754 mmHg 43%
21:00 +9°C° 0 mm 2 m/s 755 mmHg 45%
22:00 +9°C° 0 mm 2 m/s 755 mmHg 47%
23:00 +8°C° 0 mm 2 m/s 755 mmHg 49%

19 Mai, Mercredi

Heure Température Précipitation Vent Pression Humidité
00:00 +9°C° 0 mm 1 m/s 755 mmHg 51%
01:00 +9°C° 0 mm 1 m/s 755 mmHg 53%
02:00 +9°C° 0 mm 1 m/s 755 mmHg 55%
03:00 +9°C° 0 mm 1 m/s 755 mmHg 57%
04:00 +8°C° 0 mm 0 m/s 755 mmHg 59%
05:00 +9°C° 0.1 mm 1 m/s 755 mmHg 61%
06:00 +9°C° 0.1 mm 1 m/s 756 mmHg 63%
07:00 +9°C° 0.1 mm 1 m/s 756 mmHg 66%
08:00 +12°C° 0 mm 1 m/s 755 mmHg 60%
09:00 +14°C° 0 mm 1 m/s 755 mmHg 54%
10:00 +16°C° 0 mm 2 m/s 755 mmHg 47%
11:00 +20°C° 0 mm 1 m/s 754 mmHg 45%
12:00 +22°C° 0 mm 1 m/s 754 mmHg 43%
13:00 +24°C° 0 mm 1 m/s 753 mmHg 41%
14:00 +24°C° 0 mm 1 m/s 752 mmHg 43%
15:00 +25°C° 0 mm 1 m/s 752 mmHg 45%
16:00 +25°C° 0 mm 2 m/s 751 mmHg 47%
17:00 +23°C° 0 mm 2 m/s 751 mmHg 54%
18:00 +20°C° 0 mm 2 m/s 751 mmHg 61%
19:00 +18°C° 0 mm 2 m/s 751 mmHg 68%
20:00 +17°C° 0 mm 2 m/s 751 mmHg 72%
21:00 +16°C° 0 mm 2 m/s 751 mmHg 76%
22:00 +15°C° 0 mm 2 m/s 752 mmHg 80%
23:00 +15°C° 0 mm 2 m/s 752 mmHg 81%

20 Mai, Jeudi

Heure Température Précipitation Vent Pression Humidité
00:00 +14°C° 0 mm 1 m/s 752 mmHg 82%
01:00 +14°C° 0 mm 1 m/s 752 mmHg 83%
02:00 +14°C° 0 mm 1 m/s 752 mmHg 85%
03:00 +14°C° 0 mm 1 m/s 752 mmHg 87%
04:00 +13°C° 0 mm 1 m/s 752 mmHg 89%
05:00 +15°C° 0 mm 1 m/s 753 mmHg 81%
06:00 +19°C° 0 mm 1 m/s 753 mmHg 73%
07:00 +20°C° 0 mm 2 m/s 753 mmHg 64%
08:00 +21°C° 0 mm 2 m/s 753 mmHg 61%
09:00 +24°C° 0 mm 2 m/s 753 mmHg 57%
10:00 +26°C° 0 mm 2 m/s 752 mmHg 53%
11:00 +26°C° 0 mm 2 m/s 752 mmHg 50%
12:00 +27°C° 0 mm 3 m/s 752 mmHg 48%
13:00 +28°C° 0 mm 3 m/s 751 mmHg 45%
14:00 +27°C° 0.1 mm 4 m/s 751 mmHg 51%
15:00 +26°C° 0.1 mm 5 m/s 751 mmHg 57%
16:00 +25°C° 0.1 mm 5 m/s 751 mmHg 62%
17:00 +22°C° 0 mm 4 m/s 751 mmHg 69%
18:00 +21°C° 0 mm 3 m/s 752 mmHg 76%
19:00 +19°C° 0 mm 2 m/s 752 mmHg 83%
20:00 +18°C° 0 mm 2 m/s 752 mmHg 86%
21:00 +17°C° 0 mm 2 m/s 752 mmHg 89%
22:00 +17°C° 0 mm 2 m/s 752 mmHg 91%
23:00 +16°C° 0 mm 2 m/s 752 mmHg 93%
Voir plus

Nous avons besoin de votre consentement

Meteoprog et ses fournisseurs de services peuvent stocker et accéder à des données personnelles telles que des cookies, des identifiants d'appareils ou d'autres technologies similaires sur votre appareil et traiter ces données pour personnaliser le contenu et les publicités, ainsi que pour fournir des fonctionnalités de médias sociaux et analyser le trafic.

  • Stocker et/ou accéder à des informations sur votre appareil

    Des cookies, des identifiants d'appareils ou d'autres informations peuvent être stockés ou accessibles sur votre appareil aux fins indiquées ci-dessus.

  • Annonces et contenus personnalisés, mesure des annonces et des contenus, connaissance de l'audience et développement de produits

    Les annonces et le contenu peuvent être personnalisés en fonction d'un profil. D'autres données peuvent être ajoutées pour mieux personnaliser les annonces et le contenu. Les performances des publicités et du contenu peuvent être mesurées. Il est possible d'obtenir des informations sur le public qui a vu les publicités et le contenu. Ces données peuvent être utilisées pour développer ou améliorer l'expérience de l'utilisateur, les systèmes et les logiciels.

En cliquant sur "J'accepte", vous autorisez l'utilisation de cookies, des identifiants d'appareils, des balises web ou d'autres technologies similaires. Vos paramètres peuvent être modifiés dans le navigateur de votre appareil.

Dans certains cas, des intérêts légitimes peuvent être invoqués plutôt qu'un consentement. Vous pouvez en savoir plus à ce sujet dans notre Politique de confidentialité et de cookies.